SL-12 R/B(2)

Last updated on Sun Jun 21 2026 00:02:14 GMT+0000 (Coordinated Universal Time)

1 15772U 85042D 26171.45852706 -.00000036 00000+0 52818-5 0 9993 2 15772 71.1073 230.6050 0036472 322.8141 47.9872 14.22006533129007
UTC large
Height (km)
Speed (km/s)
/
Latitude / Longitude
Inclination (degrees)
Orbital Period (minutes)
Azimuth
Elevation
Range (km)
Doppler Factor

Next 0 passes for location: London (51.5072 / 0.1276)

No passes found over London.
SL-12 R/B(2)